Change the Weather History Date:

Thursday, March 6, 2014

  Actual Average Record
Temperature  
Mean Temperature 48 °F -  
Max Temperature 56 °F 51 °F 57 °F (2007)
Min Temperature 41 °F 39 °F 28 °F (2005)
Degree Days  
Heating Degree Days 16    
Moisture  
Dew Point 41 °F    
Average Humidity 77    
Maximum Humidity 93    
Minimum Humidity 50    
Precipitation  
Precipitation 0.00 in - - ()
Sea Level Pressure  
Sea Level Pressure 30.24 in    
Wind  
Wind Speed 9 mph ()    
Max Wind Speed 20 mph    
Max Gust Speed 26 mph    
Visibility 9.3 miles    
Events      
Averages and records for this station are not official NWS values.
T = Trace of Precipitation, MM = Missing Value Source: Averaged Metar Reports

Daily Weather History Graph

Daily Weather History Graph

Search for Another Location

Airport or City:

Trip Planner

Search our weather history database for the weather conditions in past years. The results will help you decide how hot, cold, wet, or windy it might be!

Date:

Astronomy

Mar. 06, 2014 Rise Set
Actual Time 6:36 AM GMT 5:50 PM GMT
Civil Twilight 6:03 AM GMT 6:24 PM GMT
Nautical Twilight 5:24 AM GMT 7:02 PM GMT
Astronomical Twilight 4:45 AM GMT 7:41 PM GMT
Moon 8:55 AM GMT (3/6) No Moon Set
Length of Visible Light 12h 20m
Length of Day
11h 14m
Waxing Crescent, 30% of the Moon is Illuminated
Mar 6
Waxing Crescent
Mar 8
First Quarter
Mar 16
Full
Mar 24
Last Quarter
Mar 30
New

Hourly Weather History & Observations

Time (GMT) Temp. Windchill Dew Point Humidity Pressure Visibility Wind Dir Wind Speed Gust Speed Precip Events Conditions
12:00 AM 44 °F - 40 °F 79% 30.28 in 11 mi South 6.9 mph - -  
12:20 AM 42.8 °F 39.3 °F 39.2 °F 87% 30.27 in - South 5.8 mph - N/A   Clear
12:50 AM 42.8 °F 39.3 °F 39.2 °F 87% 30.27 in - South 5.8 mph - N/A   Clear
1:00 AM 42 °F - 38 °F 81% 30.27 in 10 mi South 5.8 mph - -  
1:20 AM 42.8 °F 38.6 °F 39.2 °F 87% 30.27 in 6.2 mi South 6.9 mph - N/A   Unknown
1:50 AM 41.0 °F 36.4 °F 39.2 °F 93% 30.27 in 6.2 mi South 6.9 mph - N/A   Unknown
2:00 AM 43 °F - 38 °F 78% 30.27 in 11 mi South 8.1 mph - -   Scattered Clouds
2:20 AM 41.0 °F 36.4 °F 39.2 °F 93% 30.27 in 6.2 mi South 6.9 mph - N/A   Unknown
2:50 AM 41.0 °F 36.4 °F 39.2 °F 93% 30.27 in 5.6 mi South 6.9 mph - N/A   Unknown
3:00 AM 42 °F - 39 °F 85% 30.27 in 9 mi South 8.1 mph - -   Scattered Clouds
3:20 AM 41.0 °F 36.4 °F 39.2 °F 93% 30.27 in 5.6 mi South 6.9 mph - N/A   Unknown
3:50 AM 41.0 °F 39.0 °F 39.2 °F 93% 30.24 in 5.0 mi South 3.5 mph - N/A   Unknown
4:00 AM 42 °F - 39 °F 85% 30.27 in 7 mi South 6.9 mph - -  
4:20 AM 41.0 °F 37.1 °F 39.2 °F 93% 30.24 in 5.0 mi South 5.8 mph - N/A   Unknown
4:50 AM 41.0 °F 38.0 °F 39.2 °F 93% 30.24 in 5.0 mi SSW 4.6 mph - N/A   Unknown
5:00 AM 41 °F - 39 °F 89% 30.27 in 7 mi South 6.9 mph - -  
5:20 AM 41.0 °F 37.1 °F 39.2 °F 93% 30.24 in 5.0 mi SSW 5.8 mph - N/A   Unknown
5:50 AM 41.0 °F 36.4 °F 39.2 °F 93% 30.27 in 5.0 mi South 6.9 mph - N/A   Unknown
6:00 AM 42 °F - 39 °F 87% 30.27 in 8 mi South 8.1 mph - -  
6:20 AM 41.0 °F 36.4 °F 39.2 °F 93% 30.27 in 4.3 mi South 6.9 mph - N/A   Unknown
6:50 AM 41.0 °F 36.4 °F 39.2 °F 93% 30.27 in 5.6 mi Variable 6.9 mph - N/A   Unknown
7:00 AM 43 °F - 40 °F 87% 30.28 in 10 mi South 6.9 mph - -   Mostly Cloudy
7:20 AM 42.8 °F 38.6 °F 41.0 °F 93% 30.27 in 5.6 mi South 6.9 mph - N/A   Unknown
7:50 AM 44.6 °F 40.7 °F 41.0 °F 87% 30.27 in 5.6 mi SSW 6.9 mph - N/A   Unknown
8:00 AM 45 °F - 41 °F 82% 30.28 in 11 mi SSW 8.1 mph - -   Partly Cloudy
8:20 AM 46.4 °F 42.4 °F 42.8 °F 87% 30.27 in - SSW 8.1 mph - N/A   Clear
8:50 AM 46.4 °F 42.9 °F 42.8 °F 87% 30.27 in - SSW 6.9 mph - N/A   Clear
9:00 AM 48 °F - 43 °F 77% 30.29 in 11 mi SSW 10.4 mph - -  
9:20 AM 48.2 °F - 42.8 °F 82% 30.27 in - SSW 10.4 mph - N/A   Clear
9:50 AM 50.0 °F - 42.8 °F 76% 30.30 in 6.2 mi WSW 13.8 mph - N/A   Scattered Clouds
10:00 AM 49 °F - 42 °F 68% 30.30 in 13 mi SW 12.7 mph - -   Scattered Clouds
10:20 AM 50.0 °F - 42.8 °F 76% 30.30 in 6.2 mi WSW 13.8 mph - N/A   Scattered Clouds
10:50 AM 50.0 °F - 42.8 °F 76% 30.30 in 6.2 mi SW 13.8 mph - N/A   Scattered Clouds
11:00 AM 51 °F - 41 °F 60% 30.29 in 17 mi SW 15.0 mph - -   Scattered Clouds
11:20 AM 51.8 °F - 42.8 °F 71% 30.27 in 6.2 mi SW 15.0 mph - N/A   Scattered Clouds
11:50 AM 53.6 °F - 42.8 °F 67% 30.27 in 6.2 mi SW 16.1 mph - N/A   Scattered Clouds
12:00 PM 54 °F - 41 °F 50% 30.27 in 19 mi SW 15.0 mph - -   Scattered Clouds
12:20 PM 55.4 °F - 44.6 °F 67% 30.27 in 6.2 mi SW 13.8 mph - N/A   Scattered Clouds
12:50 PM 55.4 °F - 42.8 °F 63% 30.24 in 6.2 mi SW 16.1 mph - N/A   Scattered Clouds
1:00 PM 56 °F - 43 °F 51% 30.26 in 19 mi SW 15.0 mph - -  
1:20 PM 55.4 °F - 44.6 °F 67% 30.24 in 6.2 mi SW 15.0 mph 26.5 mph N/A   Scattered Clouds
1:50 PM 55.4 °F - 42.8 °F 63% 30.24 in 6.2 mi SW 16.1 mph - N/A   Scattered Clouds
2:00 PM 54 °F - 42 °F 54% 30.24 in 19 mi SW 18.4 mph - -   Partly Cloudy
2:20 PM 55.4 °F - 42.8 °F 63% 30.24 in 6.2 mi SW 17.3 mph - N/A   Scattered Clouds
2:50 PM 55.4 °F - 42.8 °F 63% 30.21 in 6.2 mi SW 16.1 mph - N/A   Scattered Clouds
3:00 PM 55 °F - 42 °F 50% 30.23 in 19 mi SW 17.3 mph - -   Scattered Clouds
3:20 PM 55.4 °F - 42.8 °F 63% 30.21 in 6.2 mi SSW 16.1 mph - N/A   Partly Cloudy
3:50 PM 53.6 °F - 41.0 °F 62% 30.21 in 6.2 mi SW 15.0 mph - N/A   Partly Cloudy
4:00 PM 53 °F - 40 °F 52% 30.22 in 19 mi SW 19.6 mph - -  
4:20 PM 53.6 °F - 42.8 °F 67% 30.21 in 6.2 mi SW 13.8 mph - N/A   Partly Cloudy
4:50 PM 51.8 °F - 42.8 °F 71% 30.21 in 6.2 mi SW 13.8 mph - N/A   Partly Cloudy
5:00 PM 52 °F - 41 °F 55% 30.22 in 22 mi SSW 16.1 mph - -   Scattered Clouds
5:20 PM 51.8 °F - 42.8 °F 71% 30.21 in 6.2 mi SSW 12.7 mph - N/A   Partly Cloudy
5:50 PM 51.8 °F - 42.8 °F 71% 30.21 in 6.2 mi SSW 12.7 mph - N/A   Partly Cloudy
6:00 PM 51 °F - 41 °F 59% 30.22 in 19 mi SSW 12.7 mph - -   Partly Cloudy
6:20 PM 50.0 °F - 42.8 °F 76% 30.21 in - SSW 12.7 mph - N/A   Clear
6:50 PM 50.0 °F - 42.8 °F 76% 30.21 in - SSW 12.7 mph - N/A   Clear
7:00 PM 50 °F - 41 °F 63% 30.23 in 17 mi SSW 12.7 mph - -   Scattered Clouds
7:20 PM 50.0 °F - 42.8 °F 76% 30.21 in 6.2 mi SSW 11.5 mph - N/A   Partly Cloudy
7:50 PM 48.2 °F - 42.8 °F 82% 30.21 in - SSW 11.5 mph - N/A   Clear
8:00 PM 49 °F - 41 °F 67% 30.23 in 19 mi SSW 12.7 mph - -   Partly Cloudy
8:20 PM 48.2 °F - 42.8 °F 82% 30.21 in - SSW 11.5 mph - N/A   Clear
8:50 PM 48.2 °F - 42.8 °F 82% 30.21 in - SSW 9.2 mph - N/A   Clear
9:00 PM 48 °F - 41 °F 70% 30.22 in 18 mi South 9.2 mph - -   Partly Cloudy
9:20 PM 48.2 °F - 42.8 °F 82% 30.21 in - SSW 10.4 mph - N/A   Clear
9:50 PM 46.4 °F 40.7 °F 42.8 °F 87% 30.18 in 6.2 mi South 12.7 mph - N/A   Partly Cloudy
10:00 PM 47 °F - 42 °F 75% 30.20 in 17 mi South 10.4 mph - -   Scattered Clouds
10:20 PM 46.4 °F 41.5 °F 42.8 °F 87% 30.18 in - South 10.4 mph - N/A   Clear
10:50 PM 46.4 °F 42.4 °F 42.8 °F 87% 30.18 in - SSW 8.1 mph - N/A   Clear
11:00 PM 47 °F - 42 °F 76% 30.19 in 15 mi South 9.2 mph - -   Mostly Cloudy
11:20 PM 46.4 °F 43.5 °F 42.8 °F 87% 30.18 in - SSW 5.8 mph - N/A   Clear
11:50 PM 46.4 °F 43.5 °F 42.8 °F 87% 30.18 in - SSW 5.8 mph - N/A   Clear